Location: Mary A Oil Field
(38.5606°N, 98.9545°W)
Time: 07:42:47
(UTC+00:00)

COSMO-SKYMED 1 - Pass Details

Date: 20 January 2020
Orbit: 621 x 623 km, 97.9° (Epoch: 27 February)

Event Time Altitude Azimuth Distance (km) Brightness Sun altitude
Rises 11:37:54 0° 159° (SSE) 2,889 6.3 -25.6°
Reaches altitude 10° 11:40:05 10° 156° (SSE) 1,988 5.5 -25.2°
Maximum altitude 11:44:22 65° 75° (ENE) 686 2.9 -24.3°
Enters shadow 11:46:19 31° 3° (N) 1,093 3.7 -24.0°
